Oakland, CA

7:54 AM PDT on September 24, 2017 (GMT -0700)
Metro Oakland International

Weather History for KOAK - December, 2011

Change the Weather History Date:

Wednesday, December 7, 2011

  Actual Average Record
Temperature  
Mean Temperature 48 °F 50 °F  
Max Temperature 56 °F 58 °F 69 °F (1975)
Min Temperature 39 °F 42 °F 32 °F (1960)
Degree Days  
Heating Degree Days 17 15  
Month to date heating degree days 61 104  
Since 1 July heating degree days 678 779  
Cooling Degree Days 0 0  
Month to date cooling degree days 0 0  
Year to date cooling degree days 152 138  
Moisture  
Dew Point 35 °F    
Average Humidity 66    
Maximum Humidity 85    
Minimum Humidity 47    
Precipitation  
Precipitation 0.00 in 0.11 in 0.78 in (2004)
Month to date precipitation 0.00 0.67  
Year to date precipitation 15.77 17.82  
Since 1 July precipitation 2.96  
Sea Level Pressure  
Sea Level Pressure 30.26 in    
Wind  
Wind Speed 3 mph (NW)    
Max Wind Speed 9 mph    
Max Gust Speed 12 mph    
Visibility 9 miles    
Events      
T = Trace of Precipitation, MM = Missing Value Source: NWS Daily Summary

Daily Weather History Graph

Daily Weather History Graph

Search for Another Location

Airport or City:

Trip Planner

Search our weather history database for the weather conditions in past years. The results will help you decide how hot, cold, wet, or windy it might be!

Date:

Astronomy

Dec. 07, 2011 Rise Set
Actual Time 7:10 AM PST 4:49 PM PST
Civil Twilight 6:41 AM PST 5:19 PM PST
Nautical Twilight 6:08 AM PST 5:51 PM PST
Astronomical Twilight 5:37 AM PST 6:23 PM PST
Moon 2:53 PM PST (12/7) 4:32 AM PST (12/7)
Length of Visible Light 10h 37m
Length of Day
9h 39m
Waxing Gibbous, 93% of the Moon is Illuminated
Dec 7
Waxing Gibbous
Dec 10
Full
Dec 17
Last Quarter
Dec 24
New
Dec 31
First Quarter

Hourly Weather History & Observations

Time (PST) Temp. Windchill Dew Point Humidity Pressure Visibility Wind Dir Wind Speed Gust Speed Precip Events Conditions
12:53 AM 46.9 °F - 31.1 °F 54% 30.36 in 10.0 mi Calm Calm - N/A   Partly Cloudy
1:53 AM 46.0 °F 44.8 °F 28.9 °F 51% 30.35 in 10.0 mi NNE 3.5 mph - N/A   Partly Cloudy
2:53 AM 46.0 °F - 30.0 °F 54% 30.34 in 10.0 mi Calm Calm - N/A   Partly Cloudy
3:53 AM 45.0 °F - 35.1 °F 68% 30.33 in 9.0 mi Calm Calm - N/A   Partly Cloudy
4:53 AM 42.8 °F - 32.0 °F 66% 30.32 in 10.0 mi Calm Calm - N/A   Clear
5:53 AM 43.0 °F 41.3 °F 31.1 °F 63% 30.32 in 10.0 mi NNE 3.5 mph - N/A   Partly Cloudy
6:53 AM 44.1 °F - 31.1 °F 60% 30.31 in 10.0 mi Calm Calm - N/A   Mostly Cloudy
7:53 AM 46.0 °F 44.8 °F 33.1 °F 61% 30.32 in 7.0 mi East 3.5 mph - N/A   Mostly Cloudy
8:53 AM 46.0 °F 44.8 °F 33.1 °F 61% 30.32 in 8.0 mi SSE 3.5 mph - N/A   Mostly Cloudy
9:53 AM 52.0 °F - 35.1 °F 53% 30.32 in 9.0 mi South 4.6 mph - N/A   Partly Cloudy
10:53 AM 55.0 °F - 35.1 °F 47% 30.30 in 6.0 mi SSW 5.8 mph - N/A   Haze
11:53 AM 51.1 °F - 39.0 °F 63% 30.27 in 6.0 mi WSW 5.8 mph - N/A   Haze
12:53 PM 52.0 °F - 39.0 °F 61% 30.25 in 6.0 mi West 6.9 mph - N/A   Haze
1:53 PM 55.0 °F - 35.1 °F 47% 30.23 in 8.0 mi WNW 6.9 mph - N/A   Partly Cloudy
2:53 PM 55.9 °F - 35.1 °F 45% 30.21 in 8.0 mi NW 8.1 mph - N/A   Partly Cloudy
3:53 PM 54.0 °F - 37.0 °F 53% 30.20 in 10.0 mi NW 6.9 mph - N/A   Partly Cloudy
4:53 PM 50.0 °F - 41.0 °F 71% 30.19 in 10.0 mi NW 6.9 mph - N/A   Partly Cloudy
5:53 PM 50.0 °F - 41.0 °F 71% 30.19 in 10.0 mi NW 3.5 mph - N/A   Clear
6:53 PM 48.0 °F - 42.1 °F 80% 30.19 in 10.0 mi WNW 3.5 mph - N/A   Clear
7:53 PM 46.9 °F - 39.9 °F 77% 30.18 in 10.0 mi Calm Calm - N/A   Clear
8:53 PM 44.1 °F - 39.9 °F 85% 30.18 in 10.0 mi Calm Calm - N/A   Clear
9:53 PM 39.0 °F 35.7 °F 36.0 °F 89% 30.18 in 10.0 mi NNE 4.6 mph - N/A   Clear
10:53 PM 39.9 °F - 35.1 °F 83% 30.18 in 9.0 mi Calm Calm - N/A   Partly Cloudy
11:53 PM 39.0 °F 36.8 °F 35.1 °F 86% 30.18 in 10.0 mi ENE 3.5 mph - N/A   Clear